This demonstration page uses our WeatherBlox Daily Observations layout. Learn more.

41.55636, -103.73856

Hourly Observations for August 7, 2015

Temp ( °F °C ) Dew Point ( °F °C ) Humidity (%) Winds ( mph kmh ) Pressure ( in mb ) Visibility ( mi km ) Precip ( " mm )
12:53 am 00:53 Clear 62 16.7 55 12.8 78 78 E 9 15 29.85 1011 10 16.0934 0 0
1:53 am 01:53 Clear 60 15.6 55 12.8 84 84 ESE 8 13 29.85 1011 10 16.0934 0 0
2:53 am 02:53 Clear 61 16.1 55 12.8 81 81 E 9 15 29.83 1010 10 16.0934 0 0
3:53 am 03:53 Clear 61 16.1 55 12.8 81 81 E 9 15 29.83 1010 10 16.0934 0 0
4:53 am 04:53 Clear 61 16.1 56 13.3 84 84 E 8 13 29.82 1010 10 16.0934 0 0
5:53 am 05:53 Clear 60 15.6 57 13.9 90 90 E 8 13 29.83 1010 10 16.0934 0 0
6:53 am 06:53 Sunny 62 16.7 58 14.4 86 86 SSE 6 9 29.85 1011 10 16.0934 0 0
7:53 am 07:53 Sunny 65 18.3 59 15 81 81 ESE 3 6 29.86 1011 10 16.0934 0 0
8:53 am 08:53 Sunny 72 22.2 57 13.9 59 59 VRB 3 6 29.86 1011 10 16.0934 0 0
9:53 am 09:53 Sunny 76 24.4 50 10 40 40 W 9 15 29.86 1011 10 16.0934 0 0
10:53 am 10:53 Sunny 79 26.1 51 10.6 38 38 WNW 6 9 29.86 1011 10 16.0934 0 0
11:53 am 11:53 Sunny 80 26.7 51 10.6 37 37 W 7 11 29.85 1011 10 16.0934 0 0
12:53 pm 12:53 Sunny 84 28.9 46 7.8 27 27 SW 6 9 29.83 1010 10 16.0934 0 0
1:53 pm 13:53 Sunny 86 30 48 8.9 27 27 VRB 3 6 29.81 1010 10 16.0934 0 0
2:53 pm 14:53 Sunny 86 30 49 9.4 28 28 SSE 6 9 29.8 1009 10 16.0934 0 0
3:53 pm 15:53 Sunny 86 30 51 10.6 30 30 E 7 11 29.76 1008 10 16.0934 0 0
4:53 pm 16:53 Sunny 91 32.8 45 7.2 20 20 Calm 29.74 1007 10 16.0934 0 0
5:53 pm 17:53 Sunny 82 27.8 60 15.6 47 47 N 8 13 29.77 1008 10 16.0934 0 0
6:53 pm 18:53 Mostly Sunny 78 25.6 54 12.2 43 43 SSE 18 30 29.79 1009 10 16.0934 0 0
7:04 pm 19:04 Mostly Sunny 75 24 55 13 50 50 SE 12 19 29.68 1005 10 16.0934 0 0
7:53 pm 19:53 Sunny 71 21.7 59 15 66 66 ESE 12 19 29.8 1009 10 16.0934 0 0
8:53 pm 20:53 Mostly Clear 69 20.6 61 16.1 76 76 Calm 29.81 1009 10 16.0934 0 0
9:53 pm 21:53 Partly Cloudy 68 20 61 16.1 78 78 SE 8 13 29.81 1010 10 16.0934 0 0
10:53 pm 22:53 Clear 67 19.4 61 16.1 81 81 SSE 7 11 29.8 1009 10 16.0934 0 0
11:53 pm 23:53 Mostly Clear 66 18.9 61 16.1 84 84 Calm 29.8 1009 10 16.0934 0 0

Powered by AerisWeather